DW7857 Weather Reports


Display with metric or nautical units.
time (UTC)temp
F
wind
direction
speed
MPH
gust
MPH
rain 1hr
in
rain 24hr
in
rain mn
in
humidity
%
barometer
mb
20240620051803 52 345 1.0 2.0 0.00 0.00 0.00 96 1023.9
20240620051114 52 27 1.0 2.0 0.00 0.00 0.00 96 1024.3
20240620050213 52 45 0.0 2.0 0.00 0.00 0.00 96 1024.2
20240620045403 52 225 1.0 2.0 0.00 0.00 0.00 96 1024.2
20240620044714 52 198 1.0 2.0 0.00 0.00 0.00 96 1024.3
20240620043603 51 0 0.0 0.0 0.00 0.00 0.00 95 1024.3
20240620042703 51 112 0.0 1.0 0.00 0.00 0.00 95 1024.3
20240620041803 51 90 0.0 1.0 0.00 0.00 0.00 95 1024.3
20240620040903 51 100 1.0 2.0 0.00 0.00 0.00 95 1024.4
20240620040004 51 202 0.0 1.0 0.00 0.00 0.00 95 1024.5
20240620035614 51 207 0.0 2.0 0.00 0.00 0.00 95 1024.2
20240620034504 51 242 0.0 1.0 0.00 0.00 0.00 94 1024.1
20240620033603 51 0 0.0 0.0 0.00 0.00 0.00 94 1024.3
20240620032703 52 256 1.0 2.0 0.00 0.00 0.00 94 1024.4
20240620032014 52 225 1.0 2.0 0.00 0.00 0.00 94 1024.2
20240620030903 53 202 1.0 2.0 0.00 0.00 0.00 94 1024.4
20240620030003 53 180 2.0 3.0 0.00 0.00 0.00 94 1024.4
20240620025403 53 180 1.0 3.0 0.00 0.00 0.00 94 1024.6
20240620024503 53 180 1.0 1.0 0.00 0.00 0.00 94 1024.4
20240620023603 53 182 2.0 2.0 0.00 0.00 0.00 94 1024.6
20240620022914 53 177 2.0 2.0 0.00 0.00 0.00 93 1024.7
20240620021803 53 180 0.0 1.0 0.00 0.00 0.00 93 1024.4
20240620021112 53 180 1.0 2.0 0.00 0.00 0.00 93 1024.2
20240620020003 53 180 1.0 2.0 0.00 0.00 0.00 92 1024.3
20240620015403 53 180 1.0 2.0 0.00 0.00 0.00 92 1024.3
20240620014503 53 180 1.0 2.0 0.00 0.00 0.00 91 1024.2
20240620013603 53 180 1.0 2.0 0.00 0.00 0.00 90 1024.3
20240620012703 53 180 0.0 1.0 0.00 0.00 0.00 90 1024.0
20240620011803 54 180 0.0 1.0 0.00 0.00 0.00 90 1024.0
20240620011112 54 180 0.0 1.0 0.00 0.00 0.00 90 1024.2
20240620010004 54 180 0.0 1.0 0.00 0.00 0.00 86 1024.2
20240620005403 54 180 0.0 1.0 0.00 0.00 0.00 86 1024.4
20240620004503 55 180 2.0 2.0 0.00 0.00 0.00 85 1024.5
20240620003603 55 187 2.0 3.0 0.00 0.00 0.00 84 1024.3
20240620002703 56 190 2.0 3.0 0.00 0.00 0.00 83 1024.6
20240620001803 56 177 1.0 2.0 0.00 0.00 0.00 83 1025.1
20240620000903 56 171 1.0 2.0 0.00 0.00 0.00 83 1024.7
20240620000004 56 170 1.0 2.0 0.00 0.00 0.00 83 1025.0
20240619235403 56 199 2.0 3.0 0.00 0.00 0.00 84 1025.0
20240619234503 56 175 2.0 4.0 0.00 0.00 0.00 84 1025.4
20240619233603 56 189 3.0 4.0 0.00 0.00 0.00 84 1025.3
20240619232703 57 183 3.0 4.0 0.00 0.00 0.00 83 1025.3
20240619232014 57 187 3.0 4.0 0.00 0.00 0.00 82 1025.2
20240619230903 57 179 2.0 4.0 0.00 0.00 0.00 80 1025.0
20240619230003 57 180 0.0 1.0 0.00 0.00 0.00 78 1025.1
20240619225403 57 180 0.0 1.0 0.00 0.00 0.00 78 1025.2
20240619224503 58 180 1.0 2.0 0.00 0.00 0.00 78 1025.3
20240619223603 58 180 1.0 2.0 0.00 0.00 0.00 77 1025.1
20240619222912 58 184 1.0 2.0 0.00 0.00 0.00 78 1025.3
20240619221803 58 138 1.0 2.0 0.00 0.00 0.00 77 1025.0
20240619220903 59 135 1.0 2.0 0.00 0.00 0.00 77 1025.0
20240619220003 59 153 1.0 2.0 0.00 0.00 0.00 77 1025.1
20240619215403 59 224 1.0 2.0 0.00 0.00 0.00 76 1024.9
20240619214503 59 196 2.0 4.0 0.00 0.00 0.00 76 1024.8
20240619213603 60 181 3.0 4.0 0.00 0.00 0.00 74 1024.9
20240619212703 60 179 1.0 2.0 0.00 0.00 0.00 72 1025.0
20240619211803 60 160 1.0 2.0 0.00 0.00 0.00 72 1024.7
20240619211113 60 135 1.0 1.0 0.00 0.00 0.00 71 1024.6
20240619210003 61 153 1.0 2.0 0.00 0.00 0.00 71 1024.5
20240619205403 61 209 1.0 2.0 0.00 0.00 0.00 71 1024.6
20240619204713 61 193 1.0 2.0 0.00 0.00 0.00 70 1024.7
20240619203603 61 195 2.0 4.0 0.00 0.00 0.00 70 1024.6
20240619202703 62 183 4.0 4.0 0.00 0.00 0.00 70 1024.2
20240619201803 62 189 3.0 4.0 0.00 0.00 0.00 68 1024.3
20240619200903 62 191 2.0 4.0 0.00 0.00 0.00 67 1024.3
20240619200003 63 186 3.0 6.0 0.00 0.00 0.00 67 1024.3
20240619195613 63 192 4.0 6.0 0.00 0.00 0.00 66 1024.0
20240619194503 64 186 3.0 4.0 0.00 0.00 0.00 62 1024.3
20240619193603 64 188 5.0 7.0 0.00 0.00 0.00 62 1024.2
20240619192703 65 194 5.0 7.0 0.00 0.00 0.00 61 1024.1
20240619191803 66 200 5.0 8.0 0.00 0.00 0.00 61 1024.0
20240619191114 66 179 4.0 6.0 0.00 0.00 0.00 60 1024.0
20240619190003 67 188 5.0 7.0 0.00 0.00 0.00 58 1024.1
20240619185403 69 158 4.0 5.0 0.00 0.00 0.00 55 1023.9
20240619184503 71 89 3.0 4.0 0.00 0.00 0.00 50 1023.8
20240619183603 70 57 3.0 6.0 0.00 0.00 0.00 50 1023.9
20240619182913 70 56 6.0 9.0 0.00 0.00 0.00 49 1023.9
20240619181803 70 30 5.0 8.0 0.00 0.00 0.00 50 1024.0
20240619180903 70 49 4.0 6.0 0.00 0.00 0.00 50 1023.8
20240619180003 69 52 5.0 7.0 0.00 0.00 0.00 50 1023.7
20240619175403 70 49 5.0 7.0 0.00 0.00 0.00 51 1023.8
20240619174503 71 65 6.0 8.0 0.00 0.00 0.00 50 1023.4
20240619173603 71 40 4.0 7.0 0.00 0.00 0.00 50 1023.5
20240619172703 71 32 5.0 6.0 0.00 0.00 0.00 50 1023.3
20240619172014 70 20 4.0 6.0 0.00 0.00 0.00 50 1023.5
20240619170903 69 43 3.0 4.0 0.00 0.00 0.00 50 1023.5
20240619170003 70 55 5.0 10.0 0.00 0.00 0.00 50 1023.5
20240619165404 71 88 5.0 10.0 0.00 0.00 0.00 49 1023.2
20240619164503 71 63 6.0 10.0 0.00 0.00 0.00 49 1023.2
20240619163603 71 63 5.0 8.0 0.00 0.00 0.00 50 1023.5
20240619162914 71 43 5.0 10.0 0.00 0.00 0.00 50 1023.4
20240619161803 71 43 6.0 10.0 0.00 0.00 0.00 50 1023.4
20240619160903 71 50 5.0 10.0 0.00 0.00 0.00 50 1023.4
20240619160003 70 68 4.0 7.0 0.00 0.00 0.00 49 1023.6
20240619155403 71 90 5.0 8.0 0.00 0.00 0.00 48 1023.7
20240619154503 71 57 4.0 8.0 0.00 0.00 0.00 49 1023.6
20240619153603 73 64 5.0 8.0 0.00 0.00 0.00 44 1023.7
20240619152703 72 48 7.0 11.0 0.00 0.00 0.00 46 1023.9
20240619151803 72 62 5.0 11.0 0.00 0.00 0.00 50 1023.9
20240619150903 73 87 5.0 8.0 0.00 0.00 0.00 45 1023.9
20240619150214 72 60 5.0 6.0 0.00 0.00 0.00 49 1023.9
20240619145613 71 64 6.0 8.0 0.00 0.00 0.00 50 1024.0
20240619144503 72 69 6.0 9.0 0.00 0.00 0.00 51 1024.0
20240619143603 72 95 4.0 8.0 0.00 0.00 0.00 50 1024.1
20240619142913 72 49 5.0 8.0 0.00 0.00 0.00 51 1024.2
20240619141803 70 59 5.0 8.0 0.00 0.00 0.00 51 1024.3
20240619140903 71 44 7.0 8.0 0.00 0.00 0.00 51 1024.3
20240619140003 73 87 4.0 8.0 0.00 0.00 0.00 49 1024.3
20240619135613 72 94 4.0 8.0 0.00 0.00 0.00 51 1024.4
20240619134503 71 49 6.0 10.0 0.00 0.00 0.00 52 1024.5
20240619133603 70 65 8.0 11.0 0.00 0.00 0.00 52 1024.5
20240619132703 71 61 6.0 10.0 0.00 0.00 0.00 53 1024.4
20240619131803 69 55 7.0 8.0 0.00 0.00 0.00 52 1024.4
20240619130903 70 47 7.0 11.0 0.00 0.00 0.00 53 1024.5
20240619130003 70 87 7.0 10.0 0.00 0.00 0.00 54 1024.6
20240619125403 69 34 7.0 10.0 0.00 0.00 0.00 54 1024.5
20240619124714 69 34 6.0 10.0 0.00 0.00 0.00 54 1024.6
20240619123603 69 56 8.0 11.0 0.00 0.00 0.00 58 1024.4
20240619122703 68 36 8.0 11.0 0.00 0.00 0.00 58 1024.5
20240619121803 69 64 7.0 9.0 0.00 0.00 0.00 59 1024.5
20240619120903 68 71 6.0 9.0 0.00 0.00 0.00 59 1024.3
20240619120003 67 72 7.0 10.0 0.00 0.00 0.00 61 1024.2
20240619115403 67 52 6.0 10.0 0.00 0.00 0.00 61 1024.2
20240619114503 66 42 7.0 9.0 0.00 0.00 0.00 62 1024.2
20240619113603 67 45 7.0 9.0 0.00 0.00 0.00 61 1024.2
20240619112703 66 57 7.0 8.0 0.00 0.00 0.00 62 1024.0
20240619111803 66 48 7.0 11.0 0.00 0.00 0.00 62 1024.1
20240619110903 67 52 7.0 11.0 0.00 0.00 0.00 63 1024.0
20240619110214 67 48 7.0 11.0 0.00 0.00 0.00 62 1023.9
20240619105403 66 70 6.0 8.0 0.00 0.00 0.00 65 1023.9
20240619104503 65 63 8.0 9.0 0.00 0.00 0.00 64 1023.9
20240619103813 65 52 7.0 9.0 0.00 0.00 0.00 64 1024.0
20240619102914 65 51 6.0 12.0 0.00 0.00 0.00 64 1024.1
20240619102013 65 62 7.0 12.0 0.00 0.00 0.00 65 1024.1
20240619100903 65 27 6.0 8.0 0.00 0.00 0.00 66 1023.8
20240619100003 65 357 7.0 11.0 0.00 0.00 0.00 66 1023.8
20240619095403 65 26 8.0 11.0 0.00 0.00 0.00 67 1023.7
20240619094503 65 55 6.0 10.0 0.00 0.00 0.00 69 1023.7
20240619093603 64 45 8.0 11.0 0.00 0.00 0.00 70 1023.6
20240619092703 64 41 7.0 8.0 0.00 0.00 0.00 70 1023.7
20240619091803 62 61 6.0 8.0 0.00 0.00 0.00 73 1023.8
20240619090903 63 68 6.0 8.0 0.00 0.00 0.00 74 1023.8
20240619090003 62 68 7.0 9.0 0.00 0.00 0.00 77 1023.8
20240619085613 61 67 7.0 11.0 0.00 0.00 0.00 77 1023.7
20240619084503 60 52 8.0 11.0 0.00 0.00 0.00 78 1023.6
20240619083603 60 60 7.0 9.0 0.00 0.00 0.00 80 1023.7
20240619082703 59 61 6.0 10.0 0.00 0.00 0.00 80 1023.4
20240619082012 60 32 7.0 10.0 0.00 0.00 0.00 80 1023.4
20240619080903 60 39 8.0 10.0 0.00 0.00 0.00 82 1023.3
20240619080003 59 69 7.0 11.0 0.00 0.00 0.00 83 1023.3
20240619075403 58 73 6.0 11.0 0.00 0.00 0.00 85 1023.0
20240619074503 57 50 7.0 10.0 0.00 0.00 0.00 85 1023.1
20240619073603 56 22 6.0 13.0 0.00 0.00 0.00 85 1022.8
20240619072703 56 68 7.0 13.0 0.00 0.00 0.00 84 1022.5
20240619072012 57 59 6.0 9.0 0.00 0.00 0.00 85 1022.7
20240619070903 57 55 6.0 8.0 0.00 0.00 0.00 86 1022.4
20240619070003 56 45 6.0 8.0 0.00 0.00 0.00 87 1022.1
20240619065613 56 55 5.0 8.0 0.00 0.00 0.00 87 1022.1
20240619064503 56 47 7.0 11.0 0.00 0.00 0.00 88 1022.3
20240619063603 56 89 5.0 7.0 0.00 0.00 0.00 89 1022.0
20240619062703 55 346 6.0 8.0 0.00 0.00 0.00 90 1021.9
20240619062014 55 325 5.0 8.0 0.00 0.00 0.00 91 1021.7
20240619060903 55 310 4.0 6.0 0.00 0.00 0.00 92 1021.9
20240619060003 54 305 5.0 7.0 0.00 0.00 0.00 95 1021.6
20240619055403 54 324 4.0 5.0 0.00 0.00 0.00 96 1021.6
20240619054504 54 336 3.0 5.0 0.00 0.00 0.00 96 1021.6
20240619053603 53 327 3.0 4.0 0.00 0.00 0.00 97 1021.7
20240619052704 53 311 3.0 4.0 0.00 0.00 0.00 97 1021.7